STARLINK-1525, 46066

Orbit data source: Space-Track

STARLINK-1525, 46066 is a payload satellite owned by SpaceX/Seattle (US) in LEO that was launched on Fri, 07 Aug 2020 UTC via an FALCON 9 launch vehicle from the Air Force Eastern Test Range (AFETR). Payload-class satellites include a variety of spacecraft equipped with specific instruments for various scientific and technological missions. These include communications satellites like Starlink; space stations such as the ISS; scientific satellites like the Hubble; Earth observation satellites from companies like Planet Labs, Umbra, and HawkEye 360; GPS; miniature CubeSats for education and research; and military/defense satellites.

Loading next visibility...
Identifier
46066, 2020-055AR
Orbit
LEO
Country
Flag of USUS
Related business
Manufacturer
SpaceX/Seattle
Mission
Partially operational Commercial Communications
Bus & Motor
STARLINK, Unknown motor
Mass
260 kg wet, ~248 kg dry
Launch date (UTC)
2020-08-07 (6 years ago)
Launch vehicle
FALCON 9
Launch site
Air Force Eastern Test Range (AFETR)
Object type
Payload
Rocket body
Debris
Shape & HBR
Box + 1 Pan, 10.1 m
Radar Cross Section
13.562 m², Large (>1 m²)

Expand to show TLE details & history
Last TLE update: 9 hours ago

TLE from 9 hours ago
0 STARLINK-1525
1 46066U 20055AR  26263.55024457  .00212378  00000-0  21023-2 0  9998
2 46066  53.0419 252.1833 0010882  62.7331 297.4790 15.64591333339374
Epoch: 2026-09-20T13:12Z
TLE epoch observation values (Epoch: 2026-09-20T13:12:21.130Z)
Latitude
-0.00006°
Longitude
54.65239°
Altitude
371.93 km
Speed
7.69 km/s
True Right ascension
16h 48m 43s
True Declination
0° 00' 00"
Sunlit
Object was in daylight at epoch
Visualization orbit readout
Latitude
Unknown
Longitude
Unknown
Altitude
Unknown
Speed
Unknown
Apparent Right ascension
Unknown
Apparent Declination
Unknown
Sunlit
N/A
Visualization observer readout
Local Sidereal Time
15:01:49
Azimuth
Unknown
Elevation
Unknown
Doppler factor
Unknown
Orbital elements
Apogee altitude
382.042 km
Perigee altitude
367.345 km
Semi-major axis
6,752.831 km
Eccentricity
0.00109
Inclination
53.0419°
RAAN
252.1833°
Arg. of periapsis
62.7331°
True anomaly
297.3683°
Mean anomaly
297.479°
Eccentric anomaly
297.42366°
Mean motion
3.91124 °/min
Orbital period
92.04 mins
BSTAR
0.0021023
Loading maneuver chart data...
Computing Atmospheric mass density...

Documentation

Showing up to 5 results
|